User: anonymous   Login
Location: Unspecified
(0.0000°N, 0.0000°E)
Time: 17:58:26
(UTC+00:00)
Language:

GEOEYE 1 - Orbit

View from above orbital plane
View from above orbital plane
View from above satellite
View from above satellite

Ground track
Ground track

The orbit data is extracted from the following two-line orbital elements,

1 33331U 08042A   16242.17060912  .00000078  00000-0  23972-4 0  9990
2 33331  98.1411 315.2298 0010483 101.0822 259.1588 14.64089865426370
Epoch (UTC): 29 August 2016 04:05:40
Eccentricity: 0.0010483
inclination: 98.1411°
perigee height: 672 km
apogee height: 687 km
right ascension of ascending node: 315.2298°
argument of perigee: 101.0822°
revolutions per day: 14.64089865
mean anomaly at epoch: 259.1588°
orbit number at epoch: 42637

The dashed part of the orbit path shows where the satellite is in the earth's shadow,  

DLR